SWA3953 MUHA-KTPA

Flight info

Callsign SWA3953
Flight time 0h 52m
Altitude 25000
Route 2259N08225W DCT MAXIM Y262 TUNSL DCT KARTR DCT FERAL BLFRG3
Aircraft B738/M-SADE2E3GIJ4RWZ/LB1D1

Departure

Time 2026-05-05 03:16
Airport José Martí International Airport (MUHA)

Arrival

Time 2026-05-05 04:08
Airport Tampa International Airport (KTPA)
Time Latitude Longitude Altitude Speed Heading
2026-05-05 02:33 22.99640 -82.40733 212 ft 0 kts 53°
2026-05-05 03:03 22.99639 -82.40735 199 ft 2 kts 53°
2026-05-05 03:04 22.99628 -82.40750 210 ft 3 kts 55°
2026-05-05 03:04 22.99618 -82.40769 204 ft 3 kts 68°
2026-05-05 03:04 22.99613 -82.40787 208 ft 3 kts 112°
2026-05-05 03:04 22.99617 -82.40794 204 ft 4 kts 145°
2026-05-05 03:08 22.99616 -82.40793 204 ft 0 kts 145°
2026-05-05 03:08 22.99614 -82.40792 208 ft 2 kts 145°
2026-05-05 03:08 22.99589 -82.40773 208 ft 9 kts 144°
2026-05-05 03:09 22.99510 -82.40714 198 ft 15 kts 146°
2026-05-05 03:09 22.99501 -82.40708 198 ft 1 kts 150°
2026-05-05 03:09 22.99484 -82.40708 211 ft 5 kts 194°
2026-05-05 03:09 22.99446 -82.40739 206 ft 9 kts 227°
2026-05-05 03:10 22.99400 -82.40803 201 ft 12 kts 234°
2026-05-05 03:10 22.99317 -82.40825 198 ft 17 kts 149°
2026-05-05 03:10 22.99215 -82.40794 198 ft 14 kts 210°
2026-05-05 03:10 22.99137 -82.40897 198 ft 21 kts 234°
2026-05-05 03:11 22.99032 -82.41054 201 ft 31 kts 234°
2026-05-05 03:11 22.98883 -82.41276 203 ft 39 kts 234°
2026-05-05 03:11 22.98728 -82.41510 202 ft 37 kts 234°
2026-05-05 03:11 22.98583 -82.41728 204 ft 35 kts 234°
2026-05-05 03:12 22.98448 -82.41933 197 ft 32 kts 234°
2026-05-05 03:12 22.98323 -82.42122 201 ft 30 kts 234°
2026-05-05 03:12 22.98206 -82.42299 208 ft 28 kts 234°
2026-05-05 03:12 22.98096 -82.42465 202 ft 26 kts 234°
2026-05-05 03:13 22.97998 -82.42562 206 ft 8 kts 184°
2026-05-05 03:13 22.97985 -82.42560 205 ft 0 kts 167°
2026-05-05 03:14 22.97984 -82.42560 205 ft 0 kts 167°
2026-05-05 03:15 22.97979 -82.42558 202 ft 4 kts 159°
2026-05-05 03:15 22.97923 -82.42518 201 ft 15 kts 136°
2026-05-05 03:15 22.97923 -82.42407 207 ft 16 kts 57°
2026-05-05 03:16 22.98013 -82.42269 205 ft 48 kts 54°
2026-05-05 03:16 22.98386 -82.41709 200 ft 132 kts 53°
2026-05-05 03:16 22.99052 -82.40702 367 ft 187 kts 54°
2026-05-05 03:16 22.99887 -82.39538 1209 ft 205 kts 52°
2026-05-05 03:17 23.00796 -82.38287 1992 ft 214 kts 46°
2026-05-05 03:17 23.02150 -82.37536 2361 ft 234 kts
2026-05-05 03:17 23.03743 -82.37945 2775 ft 244 kts 323°
2026-05-05 03:17 23.05124 -82.39015 3460 ft 248 kts 334°
2026-05-05 03:18 23.06794 -82.39521 4216 ft 252 kts 346°
2026-05-05 03:18 23.08558 -82.39917 4721 ft 271 kts 347°
2026-05-05 03:18 23.10436 -82.40292 5533 ft 276 kts 348°
2026-05-05 03:18 23.12353 -82.40635 6391 ft 280 kts 349°
2026-05-05 03:19 23.16252 -82.41246 8060 ft 285 kts 349°
2026-05-05 03:19 23.18231 -82.41529 8896 ft 288 kts 349°
2026-05-05 03:19 23.20237 -82.41803 9738 ft 291 kts 349°
2026-05-05 03:20 23.22263 -82.42073 10463 ft 297 kts 349°
2026-05-05 03:20 23.24390 -82.42355 10712 ft 321 kts 349°
2026-05-05 03:20 23.26691 -82.42657 10892 ft 345 kts 349°
2026-05-05 03:20 23.29143 -82.42973 11190 ft 361 kts 350°
2026-05-05 03:21 23.31648 -82.43290 11626 ft 372 kts 350°
2026-05-05 03:21 23.34250 -82.43616 12097 ft 380 kts 350°
2026-05-05 03:21 23.36905 -82.43948 12574 ft 388 kts 350°
2026-05-05 03:21 23.39606 -82.44285 13234 ft 387 kts 349°
2026-05-05 03:22 23.42247 -82.44611 14295 ft 377 kts 349°
2026-05-05 03:22 23.44833 -82.44932 15153 ft 371 kts 349°
2026-05-05 03:22 23.47393 -82.45251 15977 ft 367 kts 348°
2026-05-05 03:22 23.49950 -82.45574 16494 ft 374 kts 348°
2026-05-05 03:23 23.52552 -82.45905 17060 ft 377 kts 348°
2026-05-05 03:23 23.55162 -82.46234 17766 ft 377 kts 348°
2026-05-05 03:23 23.57777 -82.46564 18374 ft 380 kts 348°
2026-05-05 03:23 23.60391 -82.46895 18816 ft 384 kts 348°
2026-05-05 03:24 23.63050 -82.47230 19386 ft 384 kts 348°
2026-05-05 03:24 23.65710 -82.47565 19983 ft 384 kts 348°
2026-05-05 03:24 23.68367 -82.47899 20526 ft 386 kts 347°
2026-05-05 03:24 23.71050 -82.48194 21034 ft 391 kts 352°
2026-05-05 03:25 23.73800 -82.47998 21537 ft 402 kts
2026-05-05 03:25 23.76551 -82.47342 22059 ft 405 kts
2026-05-05 03:25 23.79307 -82.46634 22559 ft 407 kts
2026-05-05 03:25 23.82086 -82.45933 23036 ft 409 kts
2026-05-05 03:26 23.84866 -82.45241 23518 ft 411 kts
2026-05-05 03:26 23.87665 -82.44546 23945 ft 413 kts
2026-05-05 03:26 23.90472 -82.43848 24356 ft 414 kts
2026-05-05 03:26 23.93254 -82.43154 24765 ft 415 kts
2026-05-05 03:27 23.96075 -82.42449 24993 ft 416 kts
2026-05-05 03:27 23.98896 -82.41742 25012 ft 415 kts
2026-05-05 03:27 24.01721 -82.41034 25018 ft 416 kts
2026-05-05 03:27 24.04550 -82.40324 25030 ft 417 kts
2026-05-05 03:28 24.07407 -82.39609 25040 ft 425 kts
2026-05-05 03:28 24.10286 -82.38890 25035 ft 433 kts
2026-05-05 03:28 24.13253 -82.38149 25034 ft 440 kts
2026-05-05 03:28 24.16262 -82.37394 25032 ft 447 kts
2026-05-05 03:29 24.19314 -82.36627 25029 ft 452 kts
2026-05-05 03:29 24.22400 -82.35850 25035 ft 458 kts
2026-05-05 03:29 24.25520 -82.35063 25032 ft 462 kts
2026-05-05 03:29 24.28668 -82.34268 25028 ft 466 kts
2026-05-05 03:30 24.31836 -82.33467 25018 ft 466 kts
2026-05-05 03:30 24.34988 -82.32669 25014 ft 465 kts
2026-05-05 03:30 24.38147 -82.31869 25016 ft 465 kts
2026-05-05 03:30 24.41296 -82.31072 25019 ft 465 kts
2026-05-05 03:31 24.44407 -82.30286 25019 ft 464 kts
2026-05-05 03:31 24.47559 -82.29489 25021 ft 464 kts
2026-05-05 03:31 24.50705 -82.28693 25022 ft 464 kts
2026-05-05 03:31 24.53851 -82.27898 25020 ft 464 kts
2026-05-05 03:32 24.57001 -82.27101 25023 ft 464 kts
2026-05-05 03:32 24.60144 -82.26305 25022 ft 464 kts
2026-05-05 03:32 24.63295 -82.25507 25021 ft 464 kts
2026-05-05 03:32 24.66442 -82.24710 25021 ft 463 kts
2026-05-05 03:33 24.69595 -82.23910 25018 ft 463 kts
2026-05-05 03:33 24.72735 -82.23114 25022 ft 463 kts
2026-05-05 03:33 24.75837 -82.22326 25023 ft 463 kts
2026-05-05 03:33 24.78981 -82.21528 25021 ft 464 kts
2026-05-05 03:34 24.82122 -82.20730 25046 ft 464 kts
2026-05-05 03:34 24.85282 -82.19926 25034 ft 464 kts
2026-05-05 03:34 24.88433 -82.19125 25033 ft 464 kts
2026-05-05 03:34 24.91582 -82.18324 25019 ft 465 kts
2026-05-05 03:35 24.94734 -82.17521 25029 ft 465 kts
2026-05-05 03:35 24.97891 -82.16716 25024 ft 465 kts
2026-05-05 03:35 25.01054 -82.15910 25037 ft 465 kts
2026-05-05 03:35 25.04206 -82.15106 25030 ft 465 kts
2026-05-05 03:36 25.07323 -82.14311 25031 ft 465 kts
2026-05-05 03:36 25.10478 -82.13505 25032 ft 465 kts
2026-05-05 03:36 25.13633 -82.12699 25045 ft 465 kts
2026-05-05 03:36 25.16785 -82.11893 25041 ft 465 kts
2026-05-05 03:37 25.19947 -82.11085 25036 ft 466 kts
2026-05-05 03:37 25.23110 -82.10276 25030 ft 466 kts
2026-05-05 03:37 25.26240 -82.09475 25031 ft 466 kts
2026-05-05 03:37 25.29399 -82.08665 25029 ft 466 kts
2026-05-05 03:38 25.32552 -82.07857 25032 ft 466 kts
2026-05-05 03:38 25.35711 -82.07047 25034 ft 466 kts
2026-05-05 03:38 25.38876 -82.06235 25033 ft 466 kts
2026-05-05 03:38 25.42029 -82.05425 25033 ft 466 kts
2026-05-05 03:39 25.45186 -82.04615 25046 ft 466 kts
2026-05-05 03:39 25.48346 -82.03803 25039 ft 466 kts
2026-05-05 03:39 25.51507 -82.02990 25036 ft 466 kts
2026-05-05 03:39 25.54664 -82.02178 25033 ft 466 kts
2026-05-05 03:40 25.57833 -82.01362 25032 ft 466 kts
2026-05-05 03:40 25.60992 -82.00549 25035 ft 466 kts
2026-05-05 03:40 25.64113 -81.99745 25037 ft 466 kts
2026-05-05 03:40 25.67274 -81.98930 25036 ft 466 kts
2026-05-05 03:41 25.70437 -81.98114 25036 ft 466 kts
2026-05-05 03:41 25.73595 -81.97299 25069 ft 466 kts
2026-05-05 03:41 25.76756 -81.96483 25048 ft 466 kts
2026-05-05 03:41 25.79915 -81.95667 25046 ft 466 kts
2026-05-05 03:42 25.82012 -81.95125 25043 ft 466 kts
2026-05-05 03:42 25.86198 -81.94042 25044 ft 466 kts
2026-05-05 03:42 25.88332 -81.93490 25052 ft 466 kts
2026-05-05 03:42 25.92513 -81.92407 25047 ft 465 kts
2026-05-05 03:43 25.94613 -81.91863 25045 ft 465 kts
2026-05-05 03:43 25.97766 -81.91046 25048 ft 465 kts
2026-05-05 03:43 26.00916 -81.90229 25055 ft 465 kts
2026-05-05 03:43 26.04073 -81.89410 25059 ft 465 kts
2026-05-05 03:44 26.07230 -81.88590 25055 ft 465 kts
2026-05-05 03:44 26.10382 -81.87772 25047 ft 465 kts
2026-05-05 03:44 26.13536 -81.86952 25044 ft 465 kts
2026-05-05 03:44 26.16693 -81.86131 25045 ft 465 kts
2026-05-05 03:45 26.19845 -81.85311 25047 ft 465 kts
2026-05-05 03:45 26.22991 -81.84492 25046 ft 465 kts
2026-05-05 03:45 26.26137 -81.83672 25045 ft 465 kts
2026-05-05 03:45 26.29289 -81.82851 25046 ft 464 kts
2026-05-05 03:46 26.32438 -81.82030 25045 ft 464 kts
2026-05-05 03:46 26.35582 -81.81209 25063 ft 465 kts
2026-05-05 03:46 26.38733 -81.80387 25055 ft 465 kts
2026-05-05 03:46 26.41837 -81.79576 25054 ft 464 kts
2026-05-05 03:47 26.44983 -81.78753 25057 ft 464 kts
2026-05-05 03:47 26.48128 -81.77931 25056 ft 464 kts
2026-05-05 03:47 26.51280 -81.77198 25046 ft 458 kts 360°
2026-05-05 03:47 26.54400 -81.77295 25072 ft 443 kts 346°
2026-05-05 03:48 26.57462 -81.77749 25056 ft 441 kts 346°
2026-05-05 03:48 26.60441 -81.78145 25041 ft 422 kts 347°
2026-05-05 03:48 26.63296 -81.78496 25064 ft 404 kts 347°
2026-05-05 03:48 26.66053 -81.78824 24929 ft 392 kts 347°
2026-05-05 03:49 26.68748 -81.79144 24598 ft 386 kts 347°
2026-05-05 03:49 26.71385 -81.79459 24165 ft 384 kts 347°
2026-05-05 03:49 26.74039 -81.79777 23738 ft 382 kts 347°
2026-05-05 03:49 26.76688 -81.80094 23216 ft 381 kts 347°
2026-05-05 03:50 26.79316 -81.80408 22722 ft 379 kts 347°
2026-05-05 03:50 26.81935 -81.80719 22257 ft 376 kts 347°
2026-05-05 03:50 26.84533 -81.81028 21798 ft 374 kts 347°
2026-05-05 03:50 26.87110 -81.81334 21348 ft 372 kts 348°
2026-05-05 03:51 26.89645 -81.81635 20909 ft 370 kts 348°
2026-05-05 03:51 26.92197 -81.81939 20463 ft 368 kts 348°
2026-05-05 03:51 26.94742 -81.82241 20070 ft 366 kts 348°
2026-05-05 03:51 26.97262 -81.82541 19656 ft 364 kts 348°
2026-05-05 03:52 26.99779 -81.82841 19236 ft 363 kts 349°
2026-05-05 03:52 27.02283 -81.83139 18784 ft 363 kts 349°
2026-05-05 03:52 27.04799 -81.83440 18332 ft 362 kts 349°
2026-05-05 03:52 27.07296 -81.83795 17826 ft 359 kts 342°
2026-05-05 03:53 27.09555 -81.84855 17299 ft 350 kts 324°
2026-05-05 03:53 27.11538 -81.86438 16752 ft 350 kts 320°
2026-05-05 03:53 27.13471 -81.88100 16263 ft 349 kts 319°
2026-05-05 03:53 27.15384 -81.89764 15828 ft 347 kts 320°
2026-05-05 03:54 27.17289 -81.91413 15418 ft 345 kts 320°
2026-05-05 03:54 27.19190 -81.93045 15012 ft 343 kts 320°
2026-05-05 03:54 27.21084 -81.94663 14583 ft 341 kts 320°
2026-05-05 03:54 27.22947 -81.96247 14168 ft 340 kts 321°
2026-05-05 03:55 27.24837 -81.97851 13747 ft 339 kts 321°
2026-05-05 03:55 27.26727 -81.99454 13178 ft 341 kts 321°
2026-05-05 03:55 27.28620 -82.01061 12744 ft 339 kts 321°
2026-05-05 03:55 27.30497 -82.02654 12358 ft 336 kts 321°
2026-05-05 03:56 27.32362 -82.04237 11949 ft 334 kts 321°
2026-05-05 03:56 27.34219 -82.05813 11530 ft 333 kts 321°
2026-05-05 03:56 27.36041 -82.07361 11124 ft 332 kts 321°
2026-05-05 03:56 27.37880 -82.08954 10873 ft 325 kts 319°
2026-05-05 03:57 27.39567 -82.10526 10801 ft 313 kts 318°
2026-05-05 03:57 27.41208 -82.12071 10720 ft 302 kts 318°
2026-05-05 03:57 27.42802 -82.13559 10653 ft 292 kts 318°
2026-05-05 03:57 27.44335 -82.15003 10575 ft 282 kts 316°
2026-05-05 03:58 27.45751 -82.16491 10382 ft 277 kts 314°
2026-05-05 03:58 27.47148 -82.18028 9897 ft 284 kts 313°
2026-05-05 03:58 27.48566 -82.19601 9496 ft 287 kts 313°
2026-05-05 03:58 27.49985 -82.21170 9231 ft 284 kts 314°
2026-05-05 03:59 27.51377 -82.22704 8918 ft 283 kts 314°
2026-05-05 03:59 27.52784 -82.24252 8615 ft 282 kts 314°
2026-05-05 03:59 27.54189 -82.25793 8315 ft 281 kts 314°
2026-05-05 03:59 27.55588 -82.27329 7996 ft 280 kts 314°
2026-05-05 04:00 27.56989 -82.28866 7680 ft 280 kts 313°
2026-05-05 04:00 27.58383 -82.30392 7382 ft 279 kts 314°
2026-05-05 04:00 27.59776 -82.31911 7125 ft 278 kts 314°
2026-05-05 04:00 27.61160 -82.33424 6829 ft 278 kts 314°
2026-05-05 04:01 27.62545 -82.34944 6548 ft 276 kts 313°
2026-05-05 04:01 27.63889 -82.36437 6485 ft 267 kts 313°
2026-05-05 04:01 27.65173 -82.37897 6394 ft 258 kts 310°
2026-05-05 04:01 27.66328 -82.39419 6213 ft 254 kts 308°
2026-05-05 04:02 27.67454 -82.40954 5967 ft 253 kts 307°
2026-05-05 04:02 27.68581 -82.42490 5684 ft 256 kts 307°
2026-05-05 04:02 27.69727 -82.44040 5394 ft 257 kts 307°
2026-05-05 04:02 27.70866 -82.45572 5120 ft 258 kts 308°
2026-05-05 04:03 27.72023 -82.47123 4822 ft 259 kts 308°
2026-05-05 04:03 27.73190 -82.48682 4542 ft 260 kts 309°
2026-05-05 04:03 27.74362 -82.50246 4250 ft 261 kts 309°
2026-05-05 04:03 27.75513 -82.51781 4023 ft 250 kts 309°
2026-05-05 04:04 27.76612 -82.53246 3765 ft 239 kts 310°
2026-05-05 04:04 27.77780 -82.54491 3526 ft 226 kts 335°
2026-05-05 04:04 27.79246 -82.54808 3342 ft 209 kts
2026-05-05 04:04 27.80667 -82.54753 3057 ft 205 kts
2026-05-05 04:05 27.82063 -82.54720 2787 ft 195 kts
2026-05-05 04:05 27.83375 -82.54677 2541 ft 184 kts
2026-05-05 04:05 27.84652 -82.54632 2323 ft 181 kts
2026-05-05 04:05 27.85881 -82.54592 2107 ft 171 kts
2026-05-05 04:06 27.87092 -82.54550 1836 ft 175 kts
2026-05-05 04:06 27.88298 -82.54508 1606 ft 172 kts
2026-05-05 04:06 27.89488 -82.54468 1384 ft 169 kts
2026-05-05 04:06 27.90654 -82.54429 1157 ft 166 kts
2026-05-05 04:07 27.91797 -82.54393 958 ft 163 kts
2026-05-05 04:07 27.92899 -82.54349 742 ft 158 kts
2026-05-05 04:07 27.93975 -82.54321 549 ft 150 kts
2026-05-05 04:07 27.95000 -82.54278 338 ft 145 kts
2026-05-05 04:08 27.96012 -82.54249 149 ft 151 kts
2026-05-05 04:08 27.97032 -82.54210 41 ft 137 kts
2026-05-05 04:08 27.97839 -82.54187 33 ft 63 kts
2026-05-05 04:08 27.98072 -82.54179 34 ft 31 kts
2026-05-05 04:09 27.98243 -82.54126 40 ft 16 kts 47°
2026-05-05 04:09 27.98199 -82.54049 38 ft 18 kts 178°
2026-05-05 04:09 27.98062 -82.54047 35 ft 17 kts 162°
2026-05-05 04:09 27.97997 -82.53967 35 ft 14 kts 148°
2026-05-05 04:10 27.97973 -82.53901 35 ft 2 kts 107°
2026-05-05 04:10 27.97972 -82.53899 35 ft 0 kts 109°